SCP
0 0 0 0 0 0 0 0 0 0 0 0 0 0 0 0 0 0 0 0 0 0 0 0 0 0 1 1 1 2 2 2 1 1 1 1 1 1 0 0 0 0 0 0 0 0 1 1 1
1 1 1 0 0 0 0 0 0 0 0 0 0 0 0 0 0 0 0 0 0 0 0 0 0 0 1 1 1 1 1 2 1 1 1 2 1 1 1 0 0 0 0 0 0 0 1 1 1
1 1 1 0 0 0 0 0 0 0 0 0 0 0 0 0 0 0 1 1 0 0 0 0 0 0 1 1 1 1 1 2 2 1 2 2 1 1 1 0 0 1 1 0 0 0 0 0 0
1 1 1 0 0 0 0 0 0 0 0 0 0 0 0 0 0 0 1 1 0 0 0 0 0 0 1 1 2 2 2 2 2 2 2 2 1 1 1 0 1 1 1 0 0 0 0 0 0
1 1 0 0 0 0 0 0 0 0 0 0 0 0 0 0 0 1 1 1 0 0 0 0 0 0 0 1 2 2 2 2 2 2 2 2 1 1 1 0 0 1 1 1 1 0 0 0 0
0 0 0 0 0 0 0 0 0 0 0 0 0 0 0 0 0 1 1 1 0 0 0 0 0 0 0 1 1 2 2 2 2 2 2 1 1 1 1 0 0 1 1 1 1 1 1 1 0
0 0 0 0 0 0 0 0 0 0 0 0 0 0 0 0 1 1 1 1 0 0 0 0 0 0 0 1 1 1 1 1 1 1 1 1 1 1 0 0 1 1 1 1 1 1 1 1 1
1 0 0 0 0 0 0 0 0 0 0 0 0 0 0 0 1 1 1 1 1 1 1 1 1 1 1 0 0 0 1 1 1 1 1 1 1 0 0 1 1 1 1 1 1 1 1 1 1
1 0 0 0 0 0 0 0 0 0 0 0 0 0 0 1 1 1 1 1 1 1 1 1 1 1 1 0 0 0 0 1 1 1 1 1 0 0 0 1 1 1 1 1 1 1 1 1 1
1 0 0 0 0 0 0 0 0 0 0 0 0 0 1 1 1 1 2 2 1 1 1 1 1 1 1 0 0 0 0 0 0 0 1 0 0 0 0 1 1 1 1 1 1 1 1 1 1
1 0 0 0 0 0 0 0 0 0 0 0 0 1 1 1 1 1 1 1 1 1 1 1 1 1 0 0 0 0 0 0 0 0 0 0 0 0 1 1 1 1 1 1 1 1 1 1 1
0 0 0 0 0 0 0 1 1 0 0 0 0 1 1 1 1 1 1 1 1 1 1 1 1 1 1 0 0 0 1 0 0 0 0 0 0 1 1 1 1 1 1 1 1 1 1 1 1
0 0 0 0 0 0 1 1 0 0 0 0 0 1 1 1 1 1 1 1 1 1 1 1 1 1 1 1 1 0 0 0 0 0 0 0 0 1 1 1 1 1 1 1 1 1 1 1 1
0 0 0 0 0 0 0 0 0 0 0 0 0 1 1 1 1 1 1 1 1 1 1 1 1 1 1 1 1 1 0 0 0 0 0 0 0 1 1 1 1 1 1 1 1 1 1 1 1
0 0 0 0 0 0 0 0 0 0 0 0 0 0 1 1 2 2 1 1 1 1 1 1 1 1 1 1 1 1 1 1 1 0 0 0 0 0 0 1 1 1 1 1 1 1 1 1 1
0 0 0 0 0 0 0 0 0 0 1 0 0 0 0 1 1 2 2 1 1 1 1 1 1 1 1 1 1 1 1 1 1 1 0 0 0 0 0 0 1 1 1 1 0 0 0 0 0
0 0 0 0 0 0 0 0 0 0 0 0 0 0 0 0 1 1 1 2 2 2 2 2 2 1 1 1 1 1 1 1 1 1 1 0 0 0 0 0 0 0 1 1 0 0 0 0 0
0 0 0 0 0 0 0 0 0 0 0 0 0 0 0 0 0 1 1 1 2 2 2 2 2 2 2 2 2 1 1 1 1 1 1 0 0 0 0 0 0 0 1 0 0 0 0 0 0
0 0 0 0 0 0 0 0 0 0 0 0 0 0 0 0 0 1 1 1 1 1 2 2 2 2 3 2 2 2 2 1 1 1 1 1 0 0 0 0 0 0 0 0 0 0 0 0 0
0 0 0 0 0 0 0 0 0 0 0 0 0 0 0 0 0 0 0 0 0 1 1 1 2 2 2 3 3 2 2 2 2 1 1 1 0 0 0 0 0 0 0 0 0 0 0 0 0
0 0 0 0 0 0 0 0 0 0 0 0 0 0 0 0 0 0 0 0 0 0 0 1 1 1 2 2 2 3 3 3 2 2 1 1 1 1 0 0 0 0 0 1 1 1 0 0 0
0 0 0 0 0 0 0 0 0 0 0 0 0 0 0 0 0 0 0 0 0 0 0 0 1 1 1 1 2 3 3 3 2 1 1 1 1 1 1 0 0 0 1 1 1 1 1 0 0
0 0 0 0 0 0 0 0 0 0 0 0 0 0 0 0 0 0 0 0 0 0 0 0 1 1 1 1 2 2 2 2 2 1 1 1 1 1 0 0 1 1 1 1 1 1 1 0 0
0 0 0 0 0 0 0 0 0 0 0 0 0 0 0 0 0 0 0 0 0 0 0 0 1 1 1 2 2 2 2 2 1 1 1 1 1 1 1 1 1 1 1 1 1 1 1 1 1
0 0 0 0 0 0 0 0 0 0 0 0 0 0 0 0 1 1 0 0 0 0 0 1 1 1 1 2 2 2 2 1 1 1 1 1 1 1 1 1 1 1 1 1 1 1 1 1 1
0 0 0 0 0 0 0 0 0 0 0 0 0 0 0 0 1 1 1 0 0 0 0 0 1 1 1 2 1 1 1 1 1 1 1 1 1 1 1 1 1 1 1 1 1 1 1 1 1
0 0 0 0 0 0 0 0 0 0 0 0 0 0 0 0 0 1 0 0 0 0 0 0 1 1 1 2 2 1 1 1 1 1 1 1 1 1 1 1 1 1 1 1 1 1 1 1 1
0 0 0 0 0 0 0 0 0 0 0 0 0 0 0 0 0 0 0 0 0 1 1 1 1 1 1 1 2 2 1 1 1 1 1 1 1 1 1 1 1 1 1 1 1 1 1 1 1
0 0 0 0 0 0 0 0 0 0 0 0 0 0 0 0 0 0 0 1 1 1 1 1 1 1 1 1 1 1 1 1 1 1 1 1 1 1 1 1 1 1 1 1 1 1 1 1 1
0 0 0 0 0 0 0 0 0 0 0 0 0 0 0 0 0 0 0 1 1 1 1 1 1 1 1 1 1 1 1 1 1 1 1 1 1 1 1 1 2 1 1 1 2 2 2 1 1
Wind_Speed
4 3 2 3 3 2 4 4 3 4 4 4 4 3 4 6 6 6 5 3 3 4 4 4 4 5 5 4 4 4 5 6 6 7 7 7 8 8 8 8 9 8 8 8 8 8 9 9 9
2 2 3 3 2 3 5 4 5 5 5 5 4 4 4 6 6 6 4 4 3 4 4 5 6 6 5 5 5 5 6 7 7 7 7 8 8 8 8 9 9 10 9 9 9 9 9 9 9
2 2 2 1 1 2 5 5 5 6 5 3 3 4 4 5 4 4 5 5 4 5 5 7 6 6 7 7 7 7 8 8 7 7 8 8 8 9 9 9 9 10 9 9 10 11 10 9 9
2 2 2 1 5 5 4 4 5 6 4 3 3 5 5 5 3 5 6 5 5 5 5 7 6 7 7 8 9 9 9 8 8 8 8 8 9 9 9 9 10 10 10 10 10 11 11 10 11
2 2 2 3 5 4 3 3 3 4 4 4 3 5 6 5 5 7 6 5 5 6 5 7 7 7 7 8 9 9 9 9 9 9 9 9 9 9 9 9 9 9 9 10 10 11 11 11 11
2 2 2 4 5 4 4 3 3 4 5 5 4 5 6 6 6 6 6 5 5 5 5 7 7 7 7 8 8 9 9 9 9 9 9 9 8 9 9 10 10 10 10 10 11 11 11 11 11
1 1 2 4 4 4 4 2 2 3 4 3 2 4 7 7 6 6 6 5 5 5 5 5 6 7 7 7 8 8 8 9 9 9 9 9 9 9 10 10 10 10 11 11 11 11 11 10 10
1 1 3 3 3 4 4 3 2 2 4 4 1 2 5 8 7 7 6 6 6 6 5 5 5 5 6 6 8 7 8 8 8 9 9 8 8 9 8 9 10 10 10 11 11 11 10 10 10
2 2 2 2 2 3 3 3 3 2 4 3 2 4 6 10 9 8 7 6 5 5 4 4 5 5 5 5 6 5 7 7 6 7 7 4 5 6 6 10 9 9 10 11 11 10 9 8 9
2 1 2 2 2 3 4 3 3 3 4 3 4 5 8 9 8 7 6 5 5 5 4 4 4 4 4 4 4 3 4 4 4 5 5 4 4 5 6 9 8 9 9 10 10 8 6 3 5
1 1 2 2 2 2 4 4 2 2 2 2 3 6 9 9 7 6 5 5 5 4 4 3 3 3 3 3 2 2 2 3 4 4 5 4 4 4 4 4 5 6 5 6 6 4 4 5 5
2 3 2 2 3 2 3 3 3 2 3 3 4 7 9 8 7 5 4 4 4 4 3 3 3 3 3 3 3 2 2 2 3 3 4 3 3 3 4 3 4 3 3 4 4 3 5 6 6
3 3 3 3 3 3 4 3 2 3 3 4 6 7 7 7 6 4 4 4 4 4 3 2 2 2 2 2 2 2 2 2 3 2 2 3 2 3 3 3 3 3 3 3 4 4 5 6 6
3 3 3 2 3 3 4 3 2 2 3 5 6 6 6 5 5 5 4 4 4 3 3 3 3 2 2 2 2 2 2 2 2 2 2 3 2 2 3 3 3 3 3 3 3 4 4 4 4
4 4 3 2 2 2 3 2 2 3 4 5 5 5 5 4 4 4 3 3 3 3 3 3 3 2 2 1 1 1 1 2 2 2 1 2 2 2 2 2 3 3 3 3 2 4 3 3 4
4 4 3 3 1 2 4 1 4 3 4 4 4 4 4 4 3 3 2 2 2 3 3 3 3 2 2 2 1 1 1 1 1 1 1 2 2 2 2 2 2 2 2 2 2 2 2 3 3
4 3 2 2 2 2 3 1 3 3 3 3 3 3 3 3 2 2 2 2 2 3 2 3 3 3 2 2 2 1 1 1 1 1 1 1 1 2 2 1 1 2 2 2 1 1 1 2 2
2 2 2 1 2 2 3 1 2 2 2 2 3 3 3 3 3 2 2 2 2 3 2 2 3 3 3 3 2 2 1 1 1 1 1 1 1 1 2 1 2 2 2 1 1 2 1 1 1
1 2 2 0 1 1 2 1 1 2 2 2 3 3 3 2 2 2 2 2 2 2 2 2 2 3 2 2 2 2 2 2 2 1 1 1 1 1 1 1 1 1 1 1 2 2 2 1 1
4 4 2 1 2 2 1 1 1 2 3 3 3 3 3 2 2 3 2 2 2 3 2 2 1 2 2 1 1 1 2 2 2 1 1 1 1 2 2 2 2 2 2 2 2 2 1 1 1
5 5 3 2 2 4 3 3 3 3 3 2 2 3 2 3 2 3 2 2 2 2 2 2 2 2 2 2 1 2 2 2 3 3 2 2 2 2 2 2 2 2 2 2 2 2 2 1 1
5 3 4 4 5 3 4 3 2 3 4 3 3 3 3 3 3 3 2 2 2 1 1 2 2 2 2 2 2 3 2 2 2 2 2 3 3 3 2 2 2 2 2 2 3 3 2 2 2
2 0 3 4 5 5 5 5 2 4 4 3 3 3 3 3 3 3 3 2 1 1 1 1 2 2 2 2 2 2 2 2 2 2 2 2 3 2 2 2 3 3 2 2 3 3 3 3 2
4 4 4 4 5 6 4 5 2 2 2 1 2 3 3 3 3 2 2 2 1 1 1 1 2 2 2 2 3 3 3 3 3 3 3 3 2 2 3 3 3 3 3 3 3 3 3 3 3
6 6 4 5 5 2 2 4 1 1 0 1 1 2 3 3 3 3 2 2 1 1 1 1 2 2 3 3 3 3 3 4 4 4 3 3 2 2 2 3 3 3 3 2 2 3 3 3 3
5 7 5 4 3 1 3 4 1 2 1 1 1 2 3 3 3 3 3 2 2 2 2 2 2 2 2 2 3 2 3 2 2 3 3 3 2 2 2 3 2 3 3 3 3 2 3 3 3
5 5 4 6 5 5 3 2 2 2 1 1 2 3 3 3 3 3 3 3 2 2 2 2 2 2 2 2 3 3 3 3 3 3 3 2 2 2 3 3 3 3 3 3 3 3 3 3 3
3 2 4 5 4 5 3 3 1 2 1 2 3 3 3 3 3 4 4 3 3 2 2 2 2 2 2 2 2 2 3 3 3 3 4 3 3 3 3 3 4 3 3 4 4 3 3 4 3
5 5 4 4 4 5 3 1 3 1 1 1 2 2 3 3 3 3 4 3 3 2 2 2 2 1 1 1 1 2 2 2 3 3 3 3 4 4 4 4 4 3 3 4 4 4 4 4 4
4 5 6 5 4 4 5 0 4 1 1 1 1 1 2 3 3 3 3 3 3 2 2 2 2 2 2 1 1 1 1 2 2 2 2 2 3 3 4 4 3 3 3 3 4 4 4 5 5
Wind_Direction
173 182 214 231 221 150 86 82 87 97 83 71 65 53 55 38 19 56 77 90 88 97 98 110 91 89 85 80 77 84 95 94 91 90 88 84 80 76 74 72 74 77 76 75 73 74 75 73 73
165 187 226 242 241 131 99 96 99 76 92 107 86 71 71 68 52 80 101 96 102 98 95 92 90 87 75 68 74 88 96 93 87 88 85 83 78 72 74 75 76 77 77 73 71 72 76 76 76
165 241 264 242 81 70 94 96 97 97 108 111 92 61 50 67 80 91 100 122 114 101 95 92 89 85 75 66 74 87 93 93 91 89 89 84 79 75 72 73 74 77 77 76 74 72 72 77 77
214 210 226 166 96 73 77 105 118 127 115 83 103 95 77 62 70 94 113 125 117 104 97 95 89 87 80 73 75 83 92 92 90 92 93 87 82 77 73 73 73 75 76 76 75 75 73 76 76
234 237 172 125 100 92 92 113 139 128 111 106 110 97 97 90 94 109 118 116 112 105 101 100 88 86 85 80 77 80 83 81 82 90 95 89 84 79 75 75 74 76 77 78 78 77 77 76 74
211 223 175 127 109 100 97 117 137 123 112 117 122 113 101 114 123 121 120 115 108 108 105 106 101 88 85 85 80 78 77 76 77 87 93 88 85 82 79 76 75 75 77 79 79 79 78 73 73
240 156 121 123 122 113 93 115 142 129 119 109 119 116 117 132 128 132 128 120 114 111 112 111 113 113 106 93 84 79 78 76 76 81 85 85 84 84 83 80 79 79 79 79 80 80 79 76 73
297 183 138 133 133 101 96 114 99 104 99 90 121 111 126 138 140 137 130 125 120 116 113 107 108 111 107 107 96 86 84 81 81 84 86 89 95 95 93 92 81 82 83 83 83 82 79 75 73
238 196 136 119 124 103 113 124 104 91 106 94 61 54 104 133 147 146 138 130 123 119 117 112 111 103 97 93 102 109 104 97 106 104 100 109 101 98 102 79 81 84 85 84 83 81 82 86 83
205 158 98 76 89 102 116 108 112 145 127 114 106 101 121 142 154 154 146 140 134 128 123 118 110 103 97 94 108 101 97 103 101 101 105 95 87 81 86 95 88 91 94 93 85 87 100 95 88
161 109 106 112 102 111 117 101 94 165 124 121 135 137 145 150 154 156 152 147 139 131 123 117 113 115 111 109 98 93 92 96 92 93 102 96 94 102 99 107 117 114 115 99 104 108 76 76 73
137 96 92 104 115 125 116 115 104 50 49 73 120 140 149 156 160 164 157 144 140 132 131 129 129 128 119 107 104 104 100 97 95 96 99 102 93 88 90 91 88 95 90 87 84 72 77 74 75
147 120 109 113 119 120 117 108 97 71 66 99 118 136 148 158 159 156 154 150 145 136 133 133 129 131 122 106 111 121 106 101 102 98 97 97 100 93 92 98 95 88 87 95 89 79 73 71 66
112 121 120 130 142 139 123 111 115 98 115 131 136 141 146 152 156 151 157 152 146 137 133 134 125 115 118 123 142 124 121 128 120 116 124 115 116 112 102 97 96 90 88 83 89 87 82 75 72
162 162 154 142 169 157 166 126 128 119 137 146 150 144 142 154 160 159 154 156 150 133 135 134 127 123 121 116 113 118 136 139 132 123 119 117 112 115 114 105 108 107 110 105 90 89 84 84 84
197 210 190 127 157 172 211 163 101 121 147 147 150 151 158 164 171 161 155 160 149 143 142 138 150 146 130 133 155 148 147 144 146 139 137 125 129 126 109 115 116 117 118 116 106 102 99 97 87
205 222 214 148 136 184 213 201 99 124 152 148 148 152 159 153 163 162 165 170 169 164 161 157 155 161 152 145 149 138 135 141 146 157 157 156 138 149 137 123 127 123 128 128 123 109 101 101 93
219 230 224 206 115 182 201 208 106 122 152 169 165 158 160 161 171 156 156 181 193 181 183 179 170 179 168 173 167 143 138 135 124 128 167 130 153 145 138 146 142 132 143 134 136 117 116 103 111
247 244 254 352 108 224 218 240 241 166 169 192 188 180 176 165 149 135 141 155 180 178 187 181 190 177 175 181 181 180 167 152 136 128 132 163 179 165 144 163 154 153 147 154 157 138 135 139 145
220 236 238 152 135 243 220 261 256 195 198 211 215 204 200 182 161 148 152 150 162 175 177 183 193 179 180 186 190 193 167 151 132 139 136 150 170 165 169 178 167 155 152 175 172 165 193 150 221
234 247 259 251 189 211 243 231 199 183 178 186 218 227 224 211 202 170 162 157 161 168 180 189 188 177 179 183 181 175 161 169 163 162 156 152 159 167 174 177 178 172 176 174 191 199 217 220 207
239 243 254 243 243 236 248 267 192 186 188 198 210 213 222 213 200 184 172 163 174 181 187 204 190 174 168 181 192 198 194 186 170 156 154 164 169 175 179 182 189 184 190 187 199 205 220 229 227
264 184 235 244 256 259 234 259 204 181 213 207 203 202 202 196 189 186 180 180 182 164 175 204 183 167 163 179 173 198 195 186 157 154 169 185 175 182 182 198 198 195 195 200 207 218 225 229 244
165 179 187 218 242 251 242 249 239 189 228 227 190 193 190 179 172 175 168 156 141 123 145 176 181 171 171 176 182 191 194 191 179 177 184 198 181 184 186 198 201 202 201 203 204 214 218 234 234
210 231 228 217 217 231 127 247 257 70 14 291 265 195 183 175 170 165 159 148 141 140 153 167 181 192 189 188 185 196 202 206 202 195 200 205 194 193 191 198 204 204 206 208 208 213 223 228 230
221 248 268 276 267 221 192 239 103 72 1 283 232 183 166 166 167 169 168 165 166 164 160 169 191 207 199 199 193 200 196 216 219 214 212 215 216 206 206 210 210 211 212 215 215 228 227 235 232
219 231 278 283 277 267 219 190 186 156 191 183 168 163 165 170 176 179 176 175 175 175 177 186 194 207 208 215 209 205 206 213 221 226 224 223 226 224 217 212 213 208 211 219 220 227 232 238 240
272 227 224 242 262 255 228 227 227 168 186 161 169 171 173 176 187 185 180 179 180 180 187 187 194 198 205 217 221 213 222 221 227 232 227 227 226 227 229 223 231 220 218 220 224 231 235 236 232
185 201 229 241 269 281 273 109 47 359 52 134 166 175 177 182 185 183 182 184 180 168 179 182 189 193 209 219 231 233 220 224 227 235 242 244 237 230 231 227 231 230 229 227 221 230 232 237 236
235 231 236 248 235 252 277 15 79 27 63 91 123 145 170 183 183 179 174 173 178 183 196 199 201 211 219 230 248 257 238 217 225 233 241 248 245 233 229 228 227 226 229 228 229 233 235 236 238